EXPRESS-AM2

Last updated on Sun Feb 26 2017 00:17:10 GMT+0000 (Coordinated Universal Time)

1 28629U 05010A 17056.57890998 .00000032 00000-0 00000+0 0 9991 2 28629 2.1309 76.9689 0016531 25.5023 340.5369 0.99047475 43622
UTC large
Height (km)
Speed (km/s)
/
Latitude / Longitude
Inclination (degrees)
Orbital Period (minutes)
Azimuth
Elevation
Range (km)
Doppler Factor

Next 0 passes for location: London (51.5072 / 0.1276)

Sorry there are no passes over London.
EXPRESS-AM2